AFL101 VTSP-VTSM

Flight info

Callsign AFL101
Flight time 0h 32m
Altitude 17000
Route EMIRI1A EMRIT Y99 AKVUG Y93 DORNA VTSM/17
Aircraft A320/M-SDE3FGHIRWY/LB1

Departure

Time 2026-04-17 21:45
Airport Phuket International Airport (VTSP)

Arrival

Time 2026-04-17 22:17
Airport Samui International Airport (VTSM)
Time Latitude Longitude Altitude Speed Heading
2026-04-17 21:26 8.10478 98.30187 34 ft 0 kts 284°
2026-04-17 21:36 8.10477 98.30191 34 ft 2 kts 286°
2026-04-17 21:36 8.10472 98.30205 33 ft 2 kts 286°
2026-04-17 21:36 8.10468 98.30220 32 ft 2 kts 287°
2026-04-17 21:36 8.10464 98.30235 32 ft 2 kts 286°
2026-04-17 21:37 8.10460 98.30249 32 ft 2 kts 286°
2026-04-17 21:37 8.10455 98.30263 32 ft 2 kts 286°
2026-04-17 21:37 8.10451 98.30278 33 ft 2 kts 286°
2026-04-17 21:37 8.10447 98.30293 33 ft 2 kts 286°
2026-04-17 21:38 8.10443 98.30307 34 ft 1 kts 286°
2026-04-17 21:38 8.10442 98.30312 34 ft 0 kts 285°
2026-04-17 21:38 8.10442 98.30311 34 ft 0 kts 285°
2026-04-17 21:39 8.10442 98.30308 34 ft 1 kts 285°
2026-04-17 21:40 8.10451 98.30286 33 ft 4 kts 303°
2026-04-17 21:40 8.10489 98.30273 32 ft 7 kts
2026-04-17 21:40 8.10545 98.30286 31 ft 8 kts 12°
2026-04-17 21:40 8.10609 98.30302 32 ft 9 kts 14°
2026-04-17 21:41 8.10680 98.30321 32 ft 10 kts 15°
2026-04-17 21:41 8.10755 98.30341 32 ft 11 kts 14°
2026-04-17 21:41 8.10834 98.30362 32 ft 12 kts 14°
2026-04-17 21:41 8.10918 98.30384 32 ft 12 kts 15°
2026-04-17 21:42 8.11002 98.30402 33 ft 12 kts 355°
2026-04-17 21:42 8.11075 98.30357 30 ft 10 kts 329°
2026-04-17 21:42 8.11096 98.30351 30 ft 0 kts 354°
2026-04-17 21:42 8.11100 98.30351 30 ft 1 kts 354°
2026-04-17 21:43 8.11121 98.30348 29 ft 4 kts 354°
2026-04-17 21:43 8.11160 98.30346 29 ft 6 kts
2026-04-17 21:43 8.11192 98.30376 29 ft 6 kts 69°
2026-04-17 21:43 8.11199 98.30417 30 ft 5 kts 84°
2026-04-17 21:44 8.11210 98.30522 32 ft 42 kts 83°
2026-04-17 21:44 8.11261 98.31052 42 ft 107 kts 85°
2026-04-17 21:44 8.11354 98.31971 83 ft 156 kts 85°
2026-04-17 21:44 8.11470 98.33120 526 ft 163 kts 82°
2026-04-17 21:45 8.11595 98.34242 1056 ft 165 kts 83°
2026-04-17 21:45 8.11707 98.35416 1558 ft 172 kts 84°
2026-04-17 21:45 8.11816 98.36632 2052 ft 182 kts 83°
2026-04-17 21:45 8.11938 98.37970 2449 ft 197 kts 83°
2026-04-17 21:46 8.12072 98.39407 2722 ft 218 kts 83°
2026-04-17 21:46 8.12219 98.40982 3095 ft 235 kts 83°
2026-04-17 21:46 8.12377 98.42683 3481 ft 252 kts 83°
2026-04-17 21:46 8.12547 98.44497 3869 ft 270 kts 84°
2026-04-17 21:47 8.12725 98.46422 4475 ft 279 kts 83°
2026-04-17 21:47 8.12905 98.48360 5246 ft 281 kts 83°
2026-04-17 21:47 8.13086 98.50340 6048 ft 283 kts 83°
2026-04-17 21:47 8.13271 98.52308 6794 ft 287 kts 83°
2026-04-17 21:48 8.13458 98.54327 7559 ft 291 kts 83°
2026-04-17 21:48 8.13648 98.56356 8344 ft 294 kts 83°
2026-04-17 21:48 8.13840 98.58393 9092 ft 298 kts 83°
2026-04-17 21:48 8.13971 98.60513 9845 ft 303 kts 89°
2026-04-17 21:49 8.13861 98.62611 10558 ft 308 kts 96°
2026-04-17 21:49 8.13526 98.64817 10973 ft 325 kts 99°
2026-04-17 21:49 8.13111 98.67099 11303 ft 343 kts 100°
2026-04-17 21:49 8.12659 98.69555 11621 ft 361 kts 100°
2026-04-17 21:50 8.12204 98.72078 11918 ft 378 kts 99°
2026-04-17 21:50 8.11729 98.74750 12205 ft 394 kts 99°
2026-04-17 21:50 8.11242 98.77524 12475 ft 409 kts 99°
2026-04-17 21:50 8.10851 98.80409 12871 ft 420 kts 95°
2026-04-17 21:51 8.10658 98.83343 13511 ft 423 kts 91°
2026-04-17 21:51 8.10640 98.86319 14159 ft 426 kts 89°
2026-04-17 21:51 8.10670 98.89291 14762 ft 429 kts 89°
2026-04-17 21:51 8.10708 98.92326 15347 ft 433 kts 89°
2026-04-17 21:52 8.10905 98.95354 15880 ft 437 kts 79°
2026-04-17 21:52 8.11838 98.98266 16407 ft 439 kts 63°
2026-04-17 21:52 8.13495 99.00803 16804 ft 440 kts 48°
2026-04-17 21:52 8.15580 99.03085 16917 ft 441 kts 45°
2026-04-17 21:53 8.17705 99.05284 16928 ft 440 kts 44°
2026-04-17 21:53 8.19852 99.07501 16933 ft 441 kts 44°
2026-04-17 21:53 8.21967 99.09707 16936 ft 441 kts 44°
2026-04-17 21:53 8.24048 99.11906 16941 ft 427 kts 45°
2026-04-17 21:54 8.26089 99.14071 16940 ft 424 kts 45°
2026-04-17 21:54 8.28107 99.16216 16938 ft 423 kts 45°
2026-04-17 21:54 8.30142 99.18380 16938 ft 423 kts 45°
2026-04-17 21:54 8.32162 99.20530 16937 ft 423 kts 45°
2026-04-17 21:55 8.34172 99.22669 16937 ft 423 kts 45°
2026-04-17 21:55 8.36196 99.24822 16937 ft 423 kts 45°
2026-04-17 21:55 8.38203 99.26957 16937 ft 423 kts 45°
2026-04-17 21:55 8.40223 99.29107 16937 ft 423 kts 45°
2026-04-17 21:56 8.42259 99.31248 16934 ft 422 kts 42°
2026-04-17 21:56 8.44586 99.32998 16927 ft 419 kts 27°
2026-04-17 21:56 8.47291 99.34084 16930 ft 418 kts 13°
2026-04-17 21:56 8.50136 99.34473 16940 ft 417 kts
2026-04-17 21:57 8.53033 99.34620 16938 ft 417 kts
2026-04-17 21:57 8.55944 99.34737 16937 ft 417 kts
2026-04-17 21:57 8.58830 99.34858 16937 ft 417 kts
2026-04-17 21:57 8.61710 99.34988 16937 ft 416 kts
2026-04-17 21:58 8.64609 99.35126 16937 ft 417 kts
2026-04-17 21:58 8.67475 99.35269 16937 ft 417 kts
2026-04-17 21:58 8.70352 99.35413 16937 ft 417 kts
2026-04-17 21:58 8.73274 99.35558 16937 ft 417 kts
2026-04-17 21:59 8.76163 99.35702 16937 ft 417 kts
2026-04-17 21:59 8.79023 99.35841 16937 ft 417 kts
2026-04-17 21:59 8.81927 99.35984 16937 ft 417 kts
2026-04-17 21:59 8.84821 99.36128 16937 ft 417 kts
2026-04-17 22:00 8.87711 99.36273 16937 ft 417 kts
2026-04-17 22:00 8.90567 99.36417 16937 ft 417 kts
2026-04-17 22:00 8.93474 99.36565 16937 ft 417 kts
2026-04-17 22:00 8.96350 99.36710 16937 ft 417 kts
2026-04-17 22:01 8.99254 99.36856 16937 ft 417 kts
2026-04-17 22:01 9.02154 99.37005 16760 ft 416 kts
2026-04-17 22:01 9.04983 99.37557 16438 ft 415 kts 18°
2026-04-17 22:01 9.07519 99.38867 16046 ft 415 kts 34°
2026-04-17 22:02 9.09652 99.40838 15559 ft 414 kts 45°
2026-04-17 22:02 9.11572 99.42998 15005 ft 411 kts 47°
2026-04-17 22:02 9.13431 99.45132 14436 ft 407 kts 47°
2026-04-17 22:02 9.15295 99.47269 13849 ft 403 kts 47°
2026-04-17 22:03 9.17145 99.49377 13256 ft 399 kts 46°
2026-04-17 22:03 9.18956 99.51430 12673 ft 396 kts 46°
2026-04-17 22:03 9.20791 99.53505 12079 ft 393 kts 46°
2026-04-17 22:03 9.22597 99.55546 11491 ft 390 kts 46°
2026-04-17 22:04 9.24385 99.57563 11074 ft 381 kts 46°
2026-04-17 22:04 9.26109 99.59510 10869 ft 367 kts 46°
2026-04-17 22:04 9.27797 99.61417 10673 ft 354 kts 46°
2026-04-17 22:04 9.29405 99.63236 10512 ft 341 kts 46°
2026-04-17 22:05 9.30942 99.64974 10377 ft 328 kts 46°
2026-04-17 22:05 9.32431 99.66668 10266 ft 315 kts 46°
2026-04-17 22:05 9.33849 99.68287 10179 ft 301 kts 46°
2026-04-17 22:05 9.35216 99.69842 10108 ft 288 kts 46°
2026-04-17 22:06 9.36544 99.71347 9798 ft 286 kts 46°
2026-04-17 22:06 9.37859 99.72834 9467 ft 285 kts 46°
2026-04-17 22:06 9.39181 99.74328 9140 ft 283 kts 46°
2026-04-17 22:06 9.40476 99.75788 8822 ft 281 kts 44°
2026-04-17 22:07 9.41957 99.77068 8488 ft 277 kts 30°
2026-04-17 22:07 9.43662 99.77945 8176 ft 273 kts 20°
2026-04-17 22:07 9.45431 99.78640 7865 ft 271 kts 18°
2026-04-17 22:07 9.47176 99.79298 7562 ft 270 kts 18°
2026-04-17 22:08 9.48927 99.79960 7259 ft 268 kts 18°
2026-04-17 22:08 9.50665 99.80625 6960 ft 267 kts 19°
2026-04-17 22:08 9.52391 99.81291 6666 ft 265 kts 19°
2026-04-17 22:08 9.54115 99.81960 6373 ft 264 kts 19°
2026-04-17 22:09 9.55800 99.82615 6085 ft 263 kts 19°
2026-04-17 22:09 9.57511 99.83281 5795 ft 261 kts 19°
2026-04-17 22:09 9.59200 99.83939 5511 ft 260 kts 19°
2026-04-17 22:09 9.60886 99.84596 5227 ft 259 kts 19°
2026-04-17 22:10 9.62545 99.85243 4948 ft 258 kts 19°
2026-04-17 22:10 9.64213 99.85893 4669 ft 257 kts 19°
2026-04-17 22:10 9.65886 99.86546 4391 ft 256 kts 19°
2026-04-17 22:10 9.67522 99.87226 4129 ft 255 kts 28°
2026-04-17 22:11 9.68781 99.88419 4069 ft 245 kts 59°
2026-04-17 22:11 9.69289 99.90033 3832 ft 240 kts 88°
2026-04-17 22:11 9.69299 99.91698 3651 ft 233 kts 92°
2026-04-17 22:11 9.69250 99.93334 3465 ft 226 kts 92°
2026-04-17 22:12 9.69214 99.94891 3292 ft 219 kts 92°
2026-04-17 22:12 9.69195 99.96422 3143 ft 215 kts 91°
2026-04-17 22:12 9.69187 99.97896 3057 ft 203 kts 91°
2026-04-17 22:12 9.69184 99.99288 2851 ft 195 kts 91°
2026-04-17 22:13 9.68944 100.00590 2695 ft 179 kts 120°
2026-04-17 22:13 9.68163 100.01457 2554 ft 161 kts 145°
2026-04-17 22:13 9.67290 100.02087 2437 ft 148 kts 149°
2026-04-17 22:13 9.66446 100.02663 2334 ft 146 kts 149°
2026-04-17 22:14 9.65608 100.03240 2227 ft 146 kts 148°
2026-04-17 22:14 9.64774 100.03825 1969 ft 144 kts 148°
2026-04-17 22:14 9.63951 100.04408 1780 ft 144 kts 147°
2026-04-17 22:14 9.63125 100.04998 1584 ft 144 kts 147°
2026-04-17 22:15 9.62263 100.05482 1388 ft 142 kts 166°
2026-04-17 22:15 9.61297 100.05669 1212 ft 143 kts 175°
2026-04-17 22:15 9.60309 100.05752 1020 ft 143 kts 177°
2026-04-17 22:15 9.59324 100.05833 829 ft 142 kts 176°
2026-04-17 22:16 9.58329 100.05933 638 ft 142 kts 175°
2026-04-17 22:16 9.57356 100.06031 451 ft 142 kts 176°
2026-04-17 22:16 9.56378 100.06117 238 ft 140 kts 177°
2026-04-17 22:16 9.55410 100.06190 30 ft 135 kts 176°
2026-04-17 22:17 9.54723 100.06251 23 ft 57 kts 172°
2026-04-17 22:17 9.54417 100.06281 30 ft 37 kts 174°
2026-04-17 22:17 9.54228 100.06298 38 ft 20 kts 173°
2026-04-17 22:17 9.54100 100.06310 43 ft 17 kts 175°
2026-04-17 22:18 9.53985 100.06320 45 ft 16 kts 175°
2026-04-17 22:18 9.53910 100.06300 45 ft 7 kts 186°
2026-04-17 22:18 9.53890 100.06328 45 ft 7 kts 31°
2026-04-17 22:18 9.53949 100.06325 45 ft 9 kts 355°
2026-04-17 22:19 9.54015 100.06319 45 ft 10 kts 355°
2026-04-17 22:19 9.54093 100.06313 43 ft 12 kts 355°
2026-04-17 22:19 9.54186 100.06305 40 ft 16 kts 355°
2026-04-17 22:19 9.54327 100.06292 34 ft 24 kts 354°
2026-04-17 22:20 9.54521 100.06273 27 ft 30 kts 355°
2026-04-17 22:20 9.54746 100.06251 23 ft 32 kts 354°
2026-04-17 22:20 9.54919 100.06234 25 ft 15 kts 356°
2026-04-17 22:20 9.55004 100.06255 27 ft 13 kts 85°
2026-04-17 22:21 9.55030 100.06311 28 ft 5 kts 57°
2026-04-17 22:21 9.55039 100.06335 29 ft 1 kts 78°
2026-04-17 22:21 9.55040 100.06342 29 ft 0 kts 82°